Regional Weather Roundup
Issued by NWS Cleveland, OH

Current Version | Previous Version | Text Only | Print | Product List | Glossary On
Versions: 1 2 3 4 5 6 7 8 9 10 11 12 13 14 15 16 17 18 19 20 21 22 23 24 25 26 27 28 29 30 31 32 33 34 35 36 37 38 39 40 41 42 43 44 45 46 47 48 49 50
000 ASUS41 KCLE 310910 RWRCLE OHIO REGIONAL WEATHER ROUNDUP NATIONAL WEATHER SERVICE WILMINGTON, OH 500 AM EDT THU JUL 31 2014 NOTE: "FAIR" INDICATES FEW OR NO CLOUDS BELOW 12,000 FEET WITH NO SIGNIFICANT WEATHER AND/OR OBSTRUCTIONS TO VISIBILITY. OHZ001>008-015>018-024>027-034-035-043-044-311000- NORTHWEST OHIO CITY SKY/WX TMP DP RH WIND PRES REMARKS DEFIANCE CLEAR 56 53 90 CALM 30.03S FINDLAY CLEAR 56 54 93 SW5 30.03R TOLEDO EXPRESS CLEAR 52 51 97 CALM 30.01S TOLEDO METCALF CLEAR 53 50 89 SW3 30.03R LIMA CLEAR 62 59 90 S3 30.04S FOG $$ OHZ009>014-019>023-028>033-038-089-311000- NORTHEAST OHIO CITY SKY/WX TMP DP RH WIND PRES REMARKS CLE-HOPKINS PTCLDY 60 58 92 SW7 30.02S CLE-LAKEFRONT MOCLDY 63 59 87 S9 29.99S CUY CO. ARPT NOT AVBL LORAIN-ELYRIA PTCLDY 60 56 86 SW7 30.02R ASHTABULA MOCLDY 59 57 93 SW6 30.01R AKRON-CANTON PTCLDY 59 56 89 SW3 30.04R FOG WOOSTER PTCLDY 58 56 93 SW5 30.04R FOG MANSFIELD MOCLDY 62 60 93 SW7 30.04R YOUNGSTOWN CLOUDY 59 57 94 SW6 30.02S FOG $$ OHZ042-051>053-060>062-070>072-077>081-311000- SOUTHWEST OHIO CITY SKY/WX TMP DP RH WIND PRES REMARKS CINC-COVINGTON PTCLDY 65 60 84 CALM 30.07S CINC-LUNKEN MOCLDY 62 60 93 CALM 30.07S HAMILTON CLEAR 58 58 100 CALM 30.07S FOG DAYTON CLEAR 62 58 86 S3 30.07R WRIGHT-PAT AFB CLEAR 60 58 96 S3 30.06R DAYTON GENERAL CLEAR 60 59 96 S5 30.06S FOG WILMINGTON CLEAR 59 57 93 S5 30.07S FOG $$ OHZ036-037-039>041-045>050-054>059-063>069-073>076-082>088-311000- CENTRAL AND SOUTHEAST OHIO CITY SKY/WX TMP DP RH WIND PRES REMARKS COLUMBUS PTCLDY 63 58 83 SW3 30.06R OSU AIRPORT PTCLDY 61 58 90 S6 30.06R BOLTON FIELD CLEAR 60 59 99 SW7 30.06S RICKENBACK AFB CLEAR 61 56 85 S6 30.06R FOG NEWARK PTCLDY 61 58 90 S3 30.05R MARION CLEAR 63 59 87 W3 30.04S LANCASTER PTCLDY 61 58 90 S5 30.06S ZANESVILLE MOCLDY 61 58 90 SW7 30.06R NEW PHILLY CLOUDY 60 59 96 SE3 30.05S $$

USA.gov is the U.S. government's official web portal to all federal, state and local government web resources and services.